Weather History for Moffett NAS, CA

Change the Weather History Date:

Thursday, August 30, 2007

  Actual Average Record
Temperature  
Mean Temperature 78 °F 68 °F  
Max Temperature 90 °F 78 °F 90 °F (2005)
Min Temperature 68 °F 59 °F 47 °F (1955)
Degree Days  
Heating Degree Days 0    
Month to date heating degree days  
Since 1 June heating degree days  
Since 1 July heating degree days  
Cooling Degree Days 13    
Month to date cooling degree days  
Year to date cooling degree days  
Since 1 June cooling degree days  
Growing Degree Days 28 (Base 50)    
Moisture  
Dew Point 57 °F    
Average Humidity 53    
Maximum Humidity 71    
Minimum Humidity 28    
Precipitation  
Precipitation 0.00 in 0.00 in 0.03 in (1966)
Month to date precipitation 0.01  
Year to date precipitation 9.66  
Since 1 July precipitation 0.03  
Sea Level Pressure  
Sea Level Pressure 29.91 in    
Wind  
Wind Speed 3 mph (NNW)    
Max Wind Speed 16 mph    
Max Gust Speed 22 mph    
Visibility 10 miles    
Events      
T = Trace of Precipitation, MM = Missing Value Source: NWS Daily Summary

Daily Weather History Graph

Daily Weather History Graph

Search for Another Location

Airport:

Trip Planner

Search our weather history database for the weather conditions in past years. The results will help you decide how hot, cold, wet, or windy it might be!

Date:

Astronomy

Aug. 30, 2007 Rise Set
Actual Time 6:36 AM PDT 7:40 PM PDT
Civil Twilight 6:09 AM PDT 8:07 PM PDT
Nautical Twilight 5:37 AM PDT 8:38 PM PDT
Astronomical Twilight 5:04 AM PDT 9:11 PM PDT
Moon 8:55 PM PDT (8/30) 9:11 AM PDT (8/30)
Length of Visible Light 13h 57m
Length of Day
13h 03m
Waning Gibbous, 92% of the Moon is Illuminated
Aug 30
Waning Gibbous
Sep 3
Last Quarter
Sep 11
New
Sep 19
First Quarter
Sep 26
Full

Hourly Weather History & Observations

Time (PDT) Temp. Heat Index Dew Point Humidity Pressure Visibility Wind Dir Wind Speed Gust Speed Precip Events Conditions
12:56 AM 70.0 °F - 59.0 °F 68% 29.91 in 10.0 mi Calm Calm - N/A   Clear
1:56 AM 70.0 °F - 57.9 °F 65% 29.90 in 10.0 mi Calm Calm - N/A   Clear
2:56 AM 69.1 °F - 57.9 °F 68% 29.91 in 10.0 mi Calm Calm - N/A   Clear
3:56 AM 69.1 °F - 59.0 °F 70% 29.91 in 10.0 mi Calm Calm - N/A   Clear
4:56 AM 69.1 °F - 59.0 °F 70% 29.91 in 10.0 mi Calm Calm - N/A   Clear
5:56 AM 68.0 °F - 57.9 °F 70% 29.92 in 10.0 mi Calm Calm - N/A   Clear
6:56 AM 68.0 °F - 57.9 °F 70% 29.93 in 7.0 mi Calm Calm - N/A   Clear
7:56 AM 70.0 °F - 60.1 °F 71% 29.94 in 10.0 mi Calm Calm - N/A   Clear
8:56 AM 73.9 °F - 60.1 °F 62% 29.94 in 10.0 mi NNE 3.5 mph - N/A   Clear
9:56 AM 77.0 °F - 60.1 °F 56% 29.94 in 10.0 mi Variable 3.5 mph - N/A   Clear
10:56 AM 81.0 °F 81.6 °F 60.1 °F 49% 29.94 in 10.0 mi Variable 3.5 mph - N/A   Clear
11:56 AM 84.9 °F 84.2 °F 57.9 °F 40% 29.92 in 10.0 mi NNW 4.6 mph - N/A   Clear
12:56 PM 88.0 °F - 51.1 °F 28% 29.91 in 10.0 mi NNW 6.9 mph - N/A   Clear
1:56 PM 84.9 °F 83.3 °F 54.0 °F 34% 29.91 in 10.0 mi NNW 12.7 mph - N/A   Clear
2:56 PM 84.0 °F 82.5 °F 53.1 °F 34% 29.91 in 10.0 mi NNW 12.7 mph - N/A   Clear
3:56 PM 84.0 °F - 52.0 °F 33% 29.89 in 10.0 mi NNW 16.1 mph 21.9 mph N/A   Clear
4:56 PM 82.0 °F 81.6 °F 55.9 °F 41% 29.89 in 10.0 mi NNW 16.1 mph - N/A   Clear
5:56 PM 79.0 °F - 57.9 °F 48% 29.89 in 10.0 mi NNW 10.4 mph - N/A   Clear
6:56 PM 77.0 °F - 60.1 °F 56% 29.89 in 10.0 mi NNW 5.8 mph - N/A   Clear
7:56 PM 75.9 °F - 55.0 °F 48% 29.90 in 10.0 mi WNW 4.6 mph - N/A   Clear
8:56 PM 75.9 °F - 53.1 °F 45% 29.91 in 10.0 mi West 4.6 mph - N/A   Clear
9:56 PM 75.9 °F - 51.1 °F 42% 29.91 in 10.0 mi West 3.5 mph - N/A   Clear
10:56 PM 73.9 °F - 55.0 °F 52% 29.92 in 10.0 mi North 3.5 mph - N/A   Clear
11:56 PM 73.0 °F - 59.0 °F 61% 29.92 in 10.0 mi ENE 3.5 mph - N/A   Clear